• MPC Preparation (Info)

  • MPEC 2013-V70 : 2013 VD13

    The following Minor Planet Electronic Circular may be linked-to from your own Web pages, but must not otherwise be redistributed electronically.

    A form allowing access to any MPEC is at the bottom of this page.


    Read MPEC 2013-V69 Read MPEC 2013-V71


    M.P.E.C. 2013-V70                                Issued 2013 Nov. 12, 11:54 UT
    
         The Minor Planet Electronic Circulars contain information on unusual
             minor planets and routine data on comets.  They are published
       on behalf of Commission 20 of the International Astronomical Union by the
              Minor Planet Center, Smithsonian Astrophysical Observatory,
                              Cambridge, MA 02138, U.S.A.
    
                 Prepared using the Tamkin Foundation Computer Network
    
                                  MPC@CFA.HARVARD.EDU
                URL https://www.minorplanetcenter.net/    ISSN 1523-6714
    
                                       2013 VD13
    
    Observations:
         K13V13D* C2013 11 09.09521 23 24 36.00 -21 41 28.6          18.0 VqEV070703
         K13V13D  C2013 11 09.09973 23 24 36.17 -21 41 13.3          18.1 VqEV070703
         K13V13D  C2013 11 09.10426 23 24 36.33 -21 40 59.1          18.1 VqEV070703
         K13V13D  C2013 11 09.10879 23 24 36.58 -21 40 44.1          18.3 VqEV070703
         K13V13D  C2013 11 09.13692 23 24 37.76 -21 39 11.5          17.9 VqEV070703
         K13V13D  C2013 11 09.14319 23 24 38.03 -21 38 50.4          18.2 VqEV070703
         K13V13D  C2013 11 09.14946 23 24 38.29 -21 38 30.7          18.2 VqEV070703
         K13V13D `C2013 11 09.45714023 24 53.63 -21 21 16.3          17.9 RqEV070D90
         K13V13D `C2013 11 09.46074223 24 53.81 -21 21 04.1          17.9 RqEV070D90
         K13V13D `C2013 11 09.46434123 24 53.95 -21 20 52.3          18.0 RqEV070D90
         K13V13D  C2013 11 09.75126 23 25 09.19 -21 05 21.8          18.5 RuEV070B74
         K13V13D  C2013 11 09.75604 23 25 09.41 -21 05 06.2          18.4 RuEV070B74
         K13V13D  C2013 11 09.76134 23 25 09.62 -21 04 48.2          18.3 RuEV070B74
         K13V13D KC2013 11 09.78811 23 25 10.91 -21 03 19.5          18.7 VuEV070958
         K13V13D KC2013 11 09.79269 23 25 11.09 -21 03 03.9          18.7 VuEV070958
         K13V13D KC2013 11 09.79686 23 25 11.31 -21 02 50.7          18.5 VuEV070958
         K13V13D KC2013 11 09.83774 23 25 13.00 -21 00 36.8          17.8 RtEV070204
         K13V13D KC2013 11 09.84449 23 25 13.28 -21 00 14.3                tEV070204
         K13V13D KC2013 11 09.85157 23 25 13.62 -20 59 50.6                tEV070204
         K13V13D KC2013 11 10.06506523 25 25.03 -20 48 01.4          18.8 VuEV070H21
         K13V13D KC2013 11 10.06764823 25 25.16 -20 47 52.6          18.5 VuEV070H21
         K13V13D KC2013 11 10.07066123 25 25.30 -20 47 42.7          18.6 VuEV070H21
         K13V13D KC2013 11 10.07313723 25 25.40 -20 47 34.4          18.5 VuEV070H21
         K13V13D KC2013 11 10.07632123 25 25.53 -20 47 23.7          18.6 VuEV070H21
         K13V13D  C2013 11 10.11836 23 25 27.89 -20 45 02.5          17.8 RoEV070926
         K13V13D !C2013 11 10.11946 23 25 28.04 -20 44 58.8          16.6 RtEV070673
         K13V13D !C2013 11 10.12140 23 25 28.18 -20 44 52.6          16.4 RtEV070673
         K13V13D !C2013 11 10.12308 23 25 28.26 -20 44 47.5          16.3 RtEV070673
         K13V13D !C2013 11 10.12476 23 25 28.31 -20 44 42.4          16.8 RtEV070673
         K13V13D !C2013 11 10.12638 23 25 28.44 -20 44 36.4          16.7 RtEV070673
         K13V13D  C2013 11 10.12706 23 25 28.29 -20 44 33.7          17.8 RoEV070926
         K13V13D !C2013 11 10.12855 23 25 28.52 -20 44 29.7          17.3 RtEV070673
         K13V13D  C2013 11 10.13576 23 25 28.69 -20 44 04.8          17.8 RoEV070926
         K13V13D KC2013 11 10.23121 23 25 33.03 -20 38 46.0          18.0 RqEV070448
         K13V13D KC2013 11 10.23776 23 25 33.33 -20 38 24.7          18.3 RqEV070448
         K13V13D KC2013 11 10.24330 23 25 33.56 -20 38 06.0          18.2 RqEV070448
         K13V13D KC2013 11 10.78099 23 26 03.48 -20 08 16.4                qEV070J95
         K13V13D KC2013 11 10.78714 23 26 03.77 -20 07 55.7                qEV070J95
         K13V13D KC2013 11 10.79417 23 26 04.11 -20 07 32.7          17.9 RqEV070J95
         K13V13D KC2013 11 10.87433923 26 07.63 -20 02 42.7          18.4 VqEV070K91
         K13V13D KC2013 11 10.87959123 26 07.90 -20 02 25.0          18.4 VqEV070K91
         K13V13D KC2013 11 10.88486123 26 08.15 -20 02 07.2          18.4 VqEV070K91
         K13V13D |C2013 11 11.00689 23 26 15.72 -19 55 20.4          19.2 VuEV070807
         K13V13D |C2013 11 11.01041 23 26 15.89 -19 55 08.6          19.0 VuEV070807
         K13V13D |C2013 11 11.01424 23 26 16.06 -19 54 55.6          19.4 VuEV070807
         K13V13D !C2013 11 11.09760 23 26 21.00 -19 50 35.7          17.0 RtEV070673
         K13V13D !C2013 11 11.09929 23 26 21.11 -19 50 29.4          17.0 RtEV070673
         K13V13D !C2013 11 11.10095 23 26 21.18 -19 50 23.3          16.4 RtEV070673
         K13V13D  C2013 11 12.06857423 27 16.24 -18 56 10.7          17.9 RtEV070H01
         K13V13D  C2013 11 12.07203523 27 16.41 -18 55 58.8          17.9 RtEV070H01
         K13V13D  C2013 11 12.08217523 27 16.94 -18 55 24.9          18.2 RtEV070H01
         K13V13D KC2013 11 12.08450 23 27 17.14 -18 55 16.3          17.7 RoEV070291
         K13V13D KC2013 11 12.08565 23 27 17.21 -18 55 12.6          18.1 RoEV070291
         K13V13D KC2013 11 12.08682 23 27 17.26 -18 55 08.6          17.5 RoEV070291
         K13V13D  C2013 11 12.08955523 27 17.34 -18 54 59.9          17.8 RtEV070H01
         K13V13D KC2013 11 12.13167 23 27 19.48 -18 52 37.8          18.2 RqEV070448
         K13V13D KC2013 11 12.14096 23 27 19.98 -18 52 06.4          17.9 RqEV070448
         K13V13D KC2013 11 12.14721 23 27 20.30 -18 51 45.4          18.0 RqEV070448
    
    Observer details:
    204 Schiaparelli Observatory.  Observer L. Buzzi.  0.60-m f/4.64 reflector
        + CCD.
    291 LPL/Spacewatch II.  Observers T. H. Bressi, R. A. Mastaler.  1.8-m f/2.7
        reflector + CCD.
    448 Desert Moon Observatory.  Observer B. L. Stevens.  0.3-m
        Schmidt-Cassegrain + CCD.
    673 Table Mountain Observatory, Wrightwood.  Observer J. Pittichova.  0.60-m
        f/16 Ritchey-Chretien + CCD.
    703 Catalina Sky Survey.  Observer R. E. Hill.  Measurers A. Boattini,
        E. J. Christensen, A. R. Gibbs, A. D. Grauer, R. E. Hill, J. A. Johnson,
        R. A. Kowalski, S. M. Larson, F. C. Shelly.  0.68-m Schmidt + CCD.
    807 Cerro Tololo.  Observers T. Linder, R. Holmes.  Measurers T. Linder,
        R. Holmes, K. Baker.  0.41-m f/11 Ritchey-Chretien + CCD.
    926 Tenagra II Observatory.  Observers M. Schwartz, P. R. Holvorcem.  0.81-m
        f/7 Ritchey-Chretien + CCD.
    958 Observatoire de Dax.  Observers P. Dupouy, J. B. de Vanssay.  Measurer
        P. Dupouy.  0.43-m f/2.7 reflector + CCD.
    B74 Santa Maria de Montmagastrell.  Observers J. M. Bosch, R. Olivera.
        Measurer J. M. Bosch.  0.40-m f/10 Schmidt-Cassegrain + CCD.
    D90 RAS Observatory, Moorook.  Observer K. Hills.  0.41-m f/9 Ritchey-Chretien
        + CCD.
    H01 Magdalena Ridge Observatory, Socorro.  Observers W. H. Ryan, E. V. Ryan.
        Measurer W. H. Ryan.  2.4-m f/8.9 reflector + CCD.
    H21 Astronomical Research Observatory, Westfield.  Observer R. Holmes.
        Measurers T. Linder, S. Foglia, L. Buzzi, T. Vorobjov.  0.61-m f/4.5
        astrograph + CCD.
    J95 Great Shefford.  Observer P. Birtwhistle.  0.40-m f/6.0 Schmidt-Cassegrain
        + CCD.
    K91 Sutherland-LCOGT A.  Observers E. J. Christensen, S. M. Larson, T. Lister.
        Measurer T. Lister.  1.0-m f/8 Ritchey-Chretien + CCD.
    
    Orbital elements:
    2013 VD13                                                Earth MOID = 0.2642 AU
    Epoch 2013 Nov. 4.0 TT = JDT 2456600.5                  MPC
    M 355.77054              (2000.0)            P               Q
    n   0.19180108     Peri.  355.51351     +0.74491806     -0.62588362
    a   2.9778445      Node    46.07817     +0.62165021     +0.52547657
    e   0.5786304      Incl.   18.70665     +0.24217369     +0.57631941
    P   5.14           H   17.6           G   0.15           U   8
    Residuals in seconds of arc
    131109 703  0.1+  0.1+    131110 H21  0.0   0.2-    131110 K91  0.0   0.1-
    131109 703  0.2-  0.6+    131110 H21  0.1+  0.3-    131110 K91  0.1-  0.0
    131109 703  0.6-  0.1-    131110 H21  0.1-  0.2-    131111 807  0.3-  0.2+
    131109 703  0.2+  0.0     131110 H21  0.4-  0.1-    131111 807  0.3-  0.3+
    131109 703  0.1-  0.0     131110 926  0.3-  0.2-    131111 807  0.5-  0.5+
    131109 703  0.0   0.5+    131110 673  0.6-  0.3+    131111 673  0.0   1.1-
    131109 703  0.1-  0.5-    131110 673  0.1+  0.1+    131111 673  0.4+  0.4-
    131109 D90  0.1-  0.6-    131110 673  0.1+  0.4-    131111 673  0.2+  0.1+
    131109 D90  0.3+  0.4-    131110 673  0.2-  0.9-    131112 H01  0.2+  0.2-
    131109 D90  0.0   0.5-    131110 673  0.5+  0.2-    131112 H01  0.0   0.1+
    131109 B74  0.5+  0.1+    131110 926  0.3-  0.2-    131112 H01  0.1+  0.1-
    131109 B74  0.5+  0.0     131110 673  0.3+  0.7-    131112 291  0.1-  0.1+
    131109 B74  0.0   0.5+    131110 926  0.2-  0.2-    131112 291  0.1+  0.0
    131109 958  0.6+  1.0+    131110 448  0.0   0.3+    131112 291  0.1-  0.0
    131109 958  0.2+  1.5+    131110 448  0.1-  0.3-    131112 H01  0.3+  0.1+
    131109 958  0.6+  0.9+    131110 448  0.5-  0.1-    131112 448  0.2-  0.1-
    131109 204  0.3+  0.3-    131110 J95  0.2+  0.2+    131112 448  0.1+  0.0
    131109 204  0.1-  0.2-    131110 J95  0.0   0.4+    131112 448  0.1+  0.1-
    131109 204  0.1+  0.1-    131110 J95  0.1-  0.1-
    131110 H21  0.1-  0.4-    131110 K91  0.2-  0.1-
    
    Ephemeris:
    2013 VD13                a,e,i = 2.98, 0.58, 19                  q = 1.2548
    Date    TT    R. A. (2000) Decl.     Delta      r     Elong.  Phase     V
    2013 10 13    23 23 10.8 -41 42 24   0.5096  1.3540   124.6    37.3    18.3
    ...
    2013 10 28    23 18 40.3 -31 58 32   0.4823  1.2994   119.3    41.8    18.2
    ...
    2013 11 05    23 21 40.3 -25 21 34   0.4770  1.2785   116.6    43.9    18.2
    ...
    2013 11 11    23 26 15.1 -19 55 50   0.4780  1.2670   114.8    45.2    18.2
    2013 11 12    23 27 11.8 -18 59 50   0.4786  1.2654   114.5    45.4    18.2
    2013 11 13    23 28 11.4 -18 03 28   0.4794  1.2640   114.2    45.6    18.2
    ...
    2013 11 19    23 35 07.5 -12 19 27   0.4866  1.2575   112.5    46.6    18.3
    ...
    2013 11 27    23 46 46.0 -04 36 28   0.5040  1.2548   110.4    47.5    18.4
    ...
    2013 12 12    00 15 06.6 +09 05 32   0.5617  1.2685   107.0    47.9    18.7
    
    A. U. Tomatic                (C) Copyright 2013 MPC           M.P.E.C. 2013-V70
    

    Read MPEC 2013-V69 Read MPEC 2013-V71


    MPEC number:

    Enter an MPEC number in one of the following forms:

    • 1997-B01 (the full form)
    • J97B01 (the packed version of the full form)
    • B01 (the abbreviated form)